Regional Weather Roundup
Issued by NWS

Current Version | Previous Version | Text Only | Print | Product List | Glossary Off
Versions: 1 2 3 4 5 6 7 8 9 10 11 12 13 14 15 16 17 18 19 20 21 22 23 24 25 26 27 28 29 30 31 32 33 34 35 36 37 38 39 40 41 42 43 44 45 46 47 48 49 50

000
ASUS44 KMEG 301910
RWRTN
TENNESSEE HOURLY STATE WEATHER ROUNDUP
NATIONAL WEATHER SERVICE MEMPHIS TN
200 PM CDT WED JUL 30 2014

TNZ002-004-019-021-049-052-054-088>092-302000-
WEST TENNESSEE

CITY           SKY/WX    TMP DP  RH WIND       PRES   REMARKS
MEMPHIS INTL   MOSUNNY   83  57  41 VRB3      30.10F
NWS MEMPHIS      N/A     82 N/A N/A MISG        N/A
JACKSON        SUNNY     82  56  40 W6        30.11S
DYERSBURG      MOSUNNY   82  54  36 S3        30.10F
UNION CITY     MOSUNNY   81  57  44 SW3       30.10S
PARIS          PTSUNNY   79  57  46 VRB5      30.11F
LEXINGTON      MOSUNNY   81  54  39 CALM      30.10F
SAVANNAH       PTSUNNY   82  58  43 NE5       30.11S
$$

TNZ008-025-027-028-033-062-065-066-302000-
NORTH MIDDLE TENNESSEE

CITY           SKY/WX    TMP DP  RH WIND       PRES   REMARKS
NASHVILLE      PTSUNNY   82  57  42 NW6       30.10F
DICKSON        MOSUNNY   79  52  38 CALM      30.12S
PORTLAND       SUNNY     79  55  44 NW7       30.10S
CLARKSVILLE    PTSUNNY   80  54  40 VRB3      30.10F
LEBANON        MOSUNNY   79  56  45 NW5       30.09F
SMYRNA         MOSUNNY   86  60  41 VRB3      30.11F
MURFREESBORO   PTSUNNY   77  58  51 E5        30.10S
COOKEVILLE     MOSUNNY   81  59  47 N6        30.11F
LIVINGSTON       N/A     75  52  44 CALM      30.13
CROSSVILLE     PTSUNNY   73  52  47 N7        30.14F
$$

TNZ061-075-076-078-094-096-097-302000-
SOUTH MIDDLE TENNESSEE

CITY           SKY/WX    TMP DP  RH WIND       PRES   REMARKS
LEWISBURG      MOSUNNY   79  57  46 VRB5      30.10F
FAYETTEVILLE   MOSUNNY   79  55  44 N10       30.10S
TULLAHOMA      SUNNY     77  55  47 VRB7      30.12F
WINCHESTER     MOSUNNY   79  57  47 N12       30.10F
MCMINNVILLE    SUNNY     77  59  53 E7        30.12S
COLUMBIA       MOSUNNY   81  61  50 VRB7      30.09F
SHELBYVILLE    MOSUNNY   79  61  53 NE6       30.11F
$$

TNZ017-018-042-046-047-302000-
NORTHEAST TENNESSEE

CITY           SKY/WX    TMP DP  RH WIND       PRES   REMARKS
TRI CITIES     MOSUNNY   77  52  41 VRB3      30.12F
ELIZABETHTON   CLEAR     75  52  43 W7          N/A
$$

TNZ012-013-036-069-073-074-302000-
CENTRAL EAST TENNESSEE

CITY           SKY/WX    TMP DP  RH WIND       PRES   REMARKS
KNOXVILLE      PTSUNNY   77  56  48 NE10      30.09F
OAK RIDGE      MOSUNNY   77  54  44 CALM      30.11F
GATLINBURG     CLEAR     75  54  46 NE7       30.09F
MORRISTOWN     CLEAR     73  55  53 SE6       30.12F
$$

TNZ083-085-099-302000-
SOUTHEAST TENNESSEE

CITY           SKY/WX    TMP DP  RH WIND       PRES   REMARKS
CHATTANOOGA    PTSUNNY   79  56  45 N9        30.09F
$$

SKY/WX REPORTED AS FAIR MEANS FEW OR NO CLOUDS BELOW
12 THOUSAND FEET.



USA.gov is the U.S. government's official web portal to all federal, state and local government web resources and services.